N8XSF-1 Weather Reports


time (UTC)temp
C
wind
direction
speed
KPH
gust
KPH
rain 1hr
cm
rain 24hr
cm
rain mn
cm
humidity
%
barometer
mb
20260903025851 27 183 0.0 0.0 0.00 0.00 0.00 80 1010.6
20260903025317 27 183 0.0 0.0 0.00 0.00 0.00 80 1010.6
20260903024828 27 190 0.0 0.0 0.00 0.00 0.00 80 1010.8
20260903024332 27 190 0.0 0.0 0.00 0.00 0.00 80 1010.8
20260903023814 27 191 0.0 0.0 0.00 0.00 0.00 80 1010.8
20260903023349 27 190 0.0 0.0 0.00 0.00 0.00 80 1011.0
20260903022832 27 180 0.0 0.0 0.00 0.00 0.00 80 1011.0
20260903022315 27 181 0.0 0.0 0.00 0.00 0.00 80 1011.0
20260903021818 27 180 0.0 0.0 0.00 0.00 0.00 80 1011.1
20260903021325 27 181 0.0 0.0 0.00 0.00 0.00 80 1011.1
20260903020830 27 181 0.0 0.0 0.00 0.00 0.00 80 1011.1
20260903020319 27 181 0.0 0.0 0.00 0.00 0.00 80 1010.9
20260903015837 27 181 0.0 0.0 0.00 0.00 0.00 80 1010.9
20260903015315 27 185 0.0 0.0 0.00 0.00 0.00 79 1010.9
20260903014817 28 186 0.0 0.0 0.00 0.00 0.00 79 1010.9
20260903014320 28 185 0.0 0.0 0.00 0.00 0.00 79 1010.9
20260903013825 28 185 0.0 0.0 0.00 0.00 0.00 79 1010.9
20260903013333 28 185 0.0 0.0 0.00 0.00 0.00 78 1010.9
20260903012816 28 184 0.0 0.0 0.00 0.00 0.00 78 1010.9
20260903012316 28 180 0.0 0.0 0.00 0.00 0.00 78 1010.9
20260903011835 28 190 0.0 0.0 0.00 0.00 0.00 77 1010.7
20260903011342 28 186 0.0 0.0 0.00 0.00 0.00 77 1010.7
20260903010823 28 186 0.0 0.0 0.00 0.00 0.00 76 1010.7
20260903010325 29 186 0.0 0.0 0.00 0.00 0.00 76 1010.7
20260903005827 29 186 0.0 0.0 0.00 0.00 0.00 76 1010.7
20260903005334 29 186 0.0 0.0 0.00 0.00 0.00 75 1010.7
20260903004818 29 186 0.0 0.0 0.00 0.00 0.00 75 1010.7
20260903004352 30 186 0.0 0.0 0.00 0.00 0.00 74 1010.7
20260903003852 30 186 0.0 0.0 0.00 0.00 0.00 74 1010.7
20260903003345 30 186 0.0 1.6 0.00 0.00 0.00 73 1010.6
20260903002832 30 176 0.0 1.6 0.00 0.00 0.00 73 1010.6
20260903002314 30 169 0.0 1.6 0.00 0.00 0.00 73 1010.6
20260903001817 30 195 0.0 0.0 0.00 0.00 0.00 72 1010.7
20260903001401 30 197 0.0 1.6 0.00 0.00 0.00 72 1010.7
20260903000817 31 200 0.0 6.4 0.00 0.00 0.00 71 1010.7
20260903000321 31 200 0.0 6.4 0.00 0.00 0.00 70 1010.8
20260902235820 31 214 0.0 6.4 0.00 0.00 0.00 70 1010.8
20260902235328 31 218 0.0 6.4 0.00 0.00 0.00 69 1010.8
20260902234843 31 180 0.0 8.0 0.00 0.00 0.00 69 1010.8
20260902234328 31 219 1.6 8.0 0.00 0.00 0.00 68 1010.8
20260902233851 31 190 0.0 12.9 0.00 0.00 0.00 68 1010.8
20260902233320 32 219 1.6 12.9 0.00 0.00 0.00 67 1010.7
20260902232821 32 221 1.6 16.1 0.00 0.00 0.00 67 1010.7
20260902232338 32 188 3.2 16.1 0.00 0.00 0.00 66 1010.7
20260902231845 32 221 6.4 16.1 0.00 0.00 0.00 66 1010.7
20260902231330 32 188 1.6 12.9 0.00 0.00 0.00 65 1010.7
20260902230815 32 238 3.2 12.9 0.00 0.00 0.00 65 1010.7
20260902230322 32 224 4.8 12.9 0.00 0.00 0.00 65 1010.7
20260902225838 32 234 3.2 20.9 0.00 0.00 0.00 65 1010.7
20260902225342 32 223 8.0 20.9 0.00 0.00 0.00 64 1010.7
20260902224827 32 227 3.2 17.7 0.00 0.00 0.00 65 1010.7
20260902224330 32 222 8.0 22.5 0.00 0.00 0.00 64 1010.7
20260902223815 32 217 12.9 22.5 0.00 0.00 0.00 63 1010.7
20260902223317 32 206 8.0 29.0 0.00 0.00 0.00 63 1010.7
20260902222819 32 224 16.1 29.0 0.00 0.00 0.00 63 1010.7
20260902222325 33 219 9.7 17.7 0.00 0.00 0.00 64 1010.7
20260902221904 32 219 3.2 24.1 0.00 0.00 0.00 63 1010.9
20260902221326 32 207 9.7 25.7 0.00 0.00 0.00 62 1010.9
20260902220852 33 219 9.7 25.7 0.00 0.00 0.00 61 1010.9
20260902220314 33 211 4.8 19.3 0.00 0.00 0.00 61 1010.8
20260902215816 33 223 8.0 24.1 0.00 0.00 0.00 61 1010.8
20260902215352 33 203 11.3 24.1 0.00 0.00 0.00 60 1010.8
20260902214820 33 202 9.7 24.1 0.00 0.00 0.00 60 1010.9
20260902214333 33 207 8.0 24.1 0.00 0.00 0.00 59 1010.9
20260902213815 33 214 9.7 29.0 0.00 0.00 0.00 59 1010.9
20260902213320 33 214 12.9 33.8 0.00 0.00 0.00 58 1011.0
20260902212824 33 215 11.3 29.0 0.00 0.00 0.00 57 1011.0
20260902212312 33 198 11.3 29.0 0.00 0.00 0.00 57 1011.0
20260902211831 33 217 8.0 24.1 0.00 0.00 0.00 59 1010.9
20260902211314 33 202 9.7 25.7 0.00 0.00 0.00 58 1010.9
20260902210828 33 194 11.3 25.7 0.00 0.00 0.00 58 1010.9
20260902210332 33 233 14.5 30.6 0.00 0.03 0.00 59 1011.2
20260902205816 33 207 17.7 30.6 0.00 0.03 0.00 59 1011.2
20260902205319 33 208 16.1 25.7 0.00 0.03 0.00 58 1011.2
20260902204826 33 217 12.9 25.7 0.00 0.03 0.00 58 1011.3
20260902204313 33 215 9.7 17.7 0.00 0.03 0.00 58 1011.3
20260902203825 33 165 11.3 29.0 0.00 0.03 0.00 58 1011.3
20260902203341 33 207 16.1 29.0 0.00 0.03 0.00 59 1011.3
20260902202829 33 167 11.3 29.0 0.00 0.03 0.00 59 1011.3
20260902202339 33 199 12.9 30.6 0.00 0.03 0.00 59 1011.3
20260902201823 33 178 9.7 25.7 0.00 0.03 0.00 58 1011.4
20260902201329 34 202 14.5 25.7 0.00 0.03 0.00 59 1011.4
20260902200833 34 217 11.3 22.5 0.00 0.03 0.00 60 1011.4
20260902200318 34 213 9.7 19.3 0.00 0.03 0.00 59 1011.8
20260902195832 34 198 9.7 22.5 0.00 0.03 0.00 59 1011.8
20260902195333 34 183 11.3 22.5 0.00 0.03 0.00 59 1011.8
20260902194836 34 184 11.3 20.9 0.00 0.03 0.00 60 1011.8
20260902194320 34 188 8.0 24.1 0.00 0.03 0.00 60 1011.8
20260902193827 34 180 9.7 22.5 0.00 0.03 0.00 60 1011.8
20260902193330 34 224 14.5 22.5 0.00 0.03 0.00 60 1012.0
20260902192813 34 188 9.7 19.3 0.00 0.03 0.00 61 1012.0
20260902192317 34 217 9.7 19.3 0.00 0.03 0.00 60 1012.0
20260902191824 34 246 8.0 24.1 0.00 0.03 0.00 62 1012.3
20260902191343 33 209 11.3 22.5 0.00 0.03 0.00 61 1012.3
20260902190826 33 191 8.0 17.7 0.00 0.03 0.00 62 1012.3
20260902190316 33 207 9.7 17.7 0.00 0.03 0.00 63 1012.3
20260902185815 33 172 8.0 16.1 0.00 0.03 0.00 62 1012.3
20260902185324 34 179 8.0 22.5 0.00 0.03 0.00 61 1012.3
20260902184902 34 202 9.7 22.5 0.00 0.03 0.00 61 1012.4
20260902184346 33 215 14.5 22.5 0.00 0.03 0.00 62 1012.4
20260902183826 33 250 11.3 19.3 0.00 0.03 0.00 60 1012.4
20260902183358 33 217 3.2 24.1 0.00 0.03 0.00 62 1012.5
20260902182820 33 212 9.7 24.1 0.00 0.03 0.00 63 1012.5
20260902182327 33 183 6.4 19.3 0.00 0.03 0.00 61 1012.5
20260902181839 33 196 6.4 19.3 0.00 0.03 0.00 62 1012.6
20260902181329 33 192 8.0 20.9 0.00 0.03 0.00 63 1012.6
20260902180836 33 223 8.0 20.9 0.00 0.03 0.00 64 1012.6
20260902180336 33 219 9.7 19.3 0.00 0.03 0.00 63 1012.8
20260902175817 33 217 4.8 19.3 0.00 0.03 0.00 65 1012.8
20260902175315 33 198 4.8 14.5 0.00 0.03 0.00 65 1012.8
20260902174830 33 171 6.4 17.7 0.00 0.03 0.00 64 1012.9
20260902174336 32 194 8.0 19.3 0.00 0.03 0.00 65 1012.9
20260902173839 32 219 3.2 19.3 0.00 0.03 0.00 66 1012.9
20260902173319 32 226 6.4 17.7 0.00 0.03 0.00 65 1013.1
20260902172817 32 209 9.7 17.7 0.00 0.03 0.00 66 1013.1
20260902172331 32 189 8.0 17.7 0.00 0.03 0.00 65 1013.1
20260902171836 32 227 8.0 17.7 0.00 0.03 0.00 66 1013.1
20260902171322 32 215 6.4 12.9 0.00 0.03 0.00 67 1013.1
20260902170821 32 213 4.8 12.9 0.00 0.03 0.00 70 1013.1
20260902170327 31 199 1.6 12.9 0.00 0.03 0.00 71 1013.4
20260902165841 31 186 6.4 12.9 0.00 0.03 0.00 68 1013.4
20260902165323 31 155 4.8 19.3 0.00 0.03 0.00 69 1013.4
20260902164826 31 225 8.0 20.9 0.00 0.03 0.00 70 1013.5
20260902164328 31 215 9.7 19.3 0.00 0.03 0.00 69 1013.5
20260902163844 31 218 8.0 14.5 0.00 0.03 0.00 69 1013.5
20260902163329 31 169 8.0 12.9 0.00 0.03 0.00 69 1013.6
20260902162852 31 172 8.0 12.9 0.00 0.03 0.00 69 1013.6
20260902162315 31 194 3.2 19.3 0.00 0.03 0.00 70 1013.6
20260902161823 31 238 4.8 19.3 0.00 0.03 0.00 71 1013.8
20260902161355 30 209 1.6 11.3 0.00 0.03 0.00 72 1013.8
20260902160842 30 234 0.0 16.1 0.00 0.03 0.00 72 1013.8
20260902160328 30 254 4.8 17.7 0.00 0.33 0.00 71 1013.7
20260902155816 30 239 3.2 12.9 0.00 0.33 0.00 71 1013.7
20260902155322 30 221 3.2 11.3 0.00 0.33 0.00 71 1013.7
20260902154837 30 202 3.2 16.1 0.00 0.33 0.00 71 1013.6
20260902154347 30 207 4.8 16.1 0.00 0.33 0.00 72 1013.6
20260902153829 30 216 8.0 14.5 0.00 0.33 0.00 72 1013.6
20260902153314 30 229 3.2 9.7 0.00 0.33 0.00 73 1013.6
20260902152854 30 249 1.6 12.9 0.00 0.33 0.00 73 1013.6
20260902152312 30 232 4.8 17.7 0.00 0.33 0.00 73 1013.6
20260902151819 30 224 3.2 17.7 0.00 0.33 0.00 73 1013.5
20260902151323 30 223 3.2 16.1 0.00 0.33 0.00 73 1013.5
20260902150823 30 221 6.4 14.5 0.00 0.33 0.00 73 1013.5
20260902150345 30 242 6.4 14.5 0.00 0.33 0.00 74 1013.4
20260902145831 30 218 6.4 12.9 0.00 0.33 0.00 73 1013.4
20260902144819 29 226 8.0 17.7 0.00 0.33 0.00 75 1013.4
20260902144319 29 235 8.0 16.1 0.00 0.33 0.00 76 1013.4
20260902143826 29 255 11.3 16.1 0.00 0.33 0.00 75 1013.4
20260902143338 29 218 8.0 14.5 0.00 0.33 0.00 76 1013.3
20260902142845 28 257 9.7 14.5 0.00 0.33 0.00 76 1013.3
20260902142325 28 213 4.8 14.5 0.00 0.33 0.00 78 1013.3
20260902141827 28 221 8.0 14.5 0.00 0.33 0.00 77 1013.3
20260902141330 28 238 4.8 14.5 0.00 0.33 0.00 78 1013.3
20260902140902 28 216 6.4 17.7 0.00 0.33 0.00 79 1013.3
20260902140346 27 244 4.8 17.7 0.00 0.33 0.00 79 1013.3
20260902135821 27 217 6.4 17.7 0.00 0.33 0.00 80 1013.3
20260902135327 27 232 11.3 17.7 0.00 0.33 0.00 80 1013.3
20260902134824 27 252 4.8 12.9 0.00 0.33 0.00 81 1013.2
20260902134323 27 223 8.0 12.9 0.00 0.33 0.00 81 1013.2
20260902133829 26 235 1.6 16.1 0.00 0.33 0.00 82 1013.2
20260902133330 26 236 1.6 16.1 0.00 0.33 0.00 82 1013.3
20260902132846 26 219 0.0 6.4 0.00 0.33 0.00 82 1013.3
20260902132325 26 229 0.0 3.2 0.00 0.33 0.00 81 1013.3
20260902131824 26 229 0.0 9.7 0.00 0.33 0.00 81 1013.3
20260902131330 25 229 3.2 9.7 0.00 0.33 0.00 79 1013.3
20260902130902 25 215 0.0 11.3 0.00 0.33 0.00 78 1013.3
20260902130324 25 216 3.2 11.3 0.00 0.33 0.00 77 1013.3
20260902125825 25 222 1.6 11.3 0.00 0.33 0.00 76 1013.3
20260902125314 25 207 0.0 11.3 0.00 0.33 0.00 75 1013.3
20260902124814 24 244 0.0 6.4 0.00 0.33 0.00 75 1013.2
20260902124317 24 215 0.0 3.2 0.00 0.33 0.00 75 1013.2
20260902123823 24 215 0.0 3.2 0.00 0.33 0.00 75 1013.2
20260902123338 23 215 0.0 0.0 0.00 0.33 0.00 74 1013.2
20260902122839 23 215 0.0 6.4 0.00 0.33 0.00 74 1013.2
20260902122320 23 215 0.0 9.7 0.00 0.33 0.00 75 1013.2
20260902121831 23 215 0.0 9.7 0.00 0.33 0.00 75 1013.4
20260902121316 23 215 1.6 8.0 0.00 0.33 0.00 75 1013.4
20260902120824 23 207 0.0 12.9 0.00 0.33 0.00 75 1013.4
20260902120330 23 227 0.0 8.0 0.00 0.33 0.00 75 1013.4
20260902115814 23 227 0.0 9.7 0.00 0.33 0.00 75 1013.4
20260902115313 23 227 1.6 9.7 0.00 0.33 0.00 75 1013.4
20260902114851 22 229 0.0 0.0 0.00 0.33 0.00 75 1013.1
20260902114333 22 229 0.0 0.0 0.00 0.33 0.00 75 1013.1
20260902113821 22 229 0.0 0.0 0.00 0.33 0.00 75 1013.1
20260902113339 22 229 0.0 0.0 0.00 0.33 0.00 75 1013.0
20260902112827 22 229 0.0 0.0 0.00 0.33 0.00 75 1013.0
20260902112332 22 229 0.0 0.0 0.00 0.33 0.00 75 1013.0
20260902111817 22 229 0.0 0.0 0.00 0.33 0.00 75 1013.1
20260902111322 22 229 0.0 0.0 0.00 0.33 0.00 75 1013.1
20260902110843 22 229 0.0 0.0 0.00 0.33 0.00 75 1013.1
20260902110342 22 229 0.0 0.0 0.00 0.33 0.00 75 1013.1
20260902105821 22 229 0.0 0.0 0.00 0.33 0.00 75 1013.1
20260902105324 22 229 0.0 0.0 0.00 0.33 0.00 75 1013.1
20260902104828 22 229 0.0 0.0 0.00 0.33 0.00 76 1013.1
20260902104316 22 229 0.0 0.0 0.00 0.33 0.00 76 1013.1
20260902103817 22 229 0.0 0.0 0.00 0.33 0.00 76 1013.1
20260902103337 22 229 0.0 0.0 0.00 0.33 0.00 76 1013.0
20260902102826 22 229 0.0 0.0 0.00 0.33 0.00 76 1013.0
20260902102332 22 229 0.0 0.0 0.00 0.33 0.00 76 1013.0
20260902101821 22 229 0.0 0.0 0.00 0.33 0.00 76 1013.1
20260902101325 22 229 0.0 0.0 0.00 0.33 0.00 76 1013.1
20260902100830 22 229 0.0 0.0 0.00 0.33 0.00 76 1013.1
20260902100333 23 229 0.0 0.0 0.00 0.33 0.00 76 1013.0
20260902095819 23 229 0.0 0.0 0.00 0.33 0.00 76 1013.0
20260902095337 23 229 0.0 0.0 0.00 0.33 0.00 76 1013.0
20260902094823 23 229 0.0 0.0 0.00 0.33 0.00 76 1012.9
20260902094327 23 229 0.0 0.0 0.00 0.33 0.00 76 1012.9
20260902093830 23 229 0.0 0.0 0.00 0.33 0.00 76 1012.9
20260902093316 23 229 0.0 0.0 0.00 0.33 0.00 76 1013.0
20260902092817 23 229 0.0 0.0 0.00 0.33 0.00 76 1013.0
20260902092328 23 229 0.0 0.0 0.00 0.33 0.00 76 1013.0
20260902091903 23 229 0.0 0.0 0.00 0.33 0.00 76 1012.9
20260902091318 23 229 0.0 0.0 0.00 0.33 0.00 76 1012.9
20260902090845 23 229 0.0 0.0 0.00 0.33 0.00 76 1012.9
20260902090348 23 229 0.0 0.0 0.00 0.33 0.00 76 1012.9
20260902085831 23 229 0.0 0.0 0.00 0.33 0.00 76 1012.9
20260902085321 23 229 0.0 0.0 0.00 0.33 0.00 76 1012.9
20260902084829 23 229 0.0 0.0 0.00 0.33 0.00 76 1012.8
20260902084343 23 229 0.0 0.0 0.00 0.33 0.00 76 1012.8
20260902083828 23 229 0.0 0.0 0.00 0.33 0.00 76 1012.8
20260902083352 23 229 0.0 0.0 0.00 0.33 0.00 76 1012.8
20260902082832 23 229 0.0 0.0 0.00 0.33 0.00 76 1012.8
20260902082316 23 229 0.0 0.0 0.00 0.33 0.00 76 1012.8
20260902081830 23 229 0.0 0.0 0.00 0.33 0.00 76 1012.6
20260902081339 23 229 0.0 0.0 0.00 0.33 0.00 76 1012.6
20260902080823 23 229 0.0 0.0 0.00 0.33 0.00 76 1012.6
20260902080335 23 229 0.0 0.0 0.00 0.33 0.00 76 1012.5
20260902075820 23 229 0.0 0.0 0.00 0.33 0.00 76 1012.5
20260902075318 23 229 0.0 0.0 0.00 0.33 0.00 76 1012.5
20260902074824 23 229 0.0 0.0 0.00 0.33 0.00 76 1012.4
20260902074401 23 229 0.0 0.0 0.00 0.33 0.00 76 1012.4
20260902073814 23 229 0.0 0.0 0.00 0.33 0.00 76 1012.4
20260902073348 23 229 0.0 0.0 0.00 0.33 0.00 76 1012.4
20260902072832 23 229 0.0 0.0 0.00 0.33 0.00 76 1012.4
20260902072406 23 229 0.0 0.0 0.00 0.33 0.00 76 1012.4
20260902071852 23 229 0.0 0.0 0.00 0.33 0.00 76 1012.2
20260902071320 23 229 0.0 0.0 0.00 0.33 0.00 76 1012.2
20260902070853 23 229 0.0 0.0 0.00 0.33 0.00 76 1012.2
20260902070355 23 229 0.0 0.0 0.00 0.33 0.00 77 1012.3
20260902065818 23 229 0.0 0.0 0.00 0.33 0.00 77 1012.3
20260902065350 23 229 0.0 0.0 0.00 0.33 0.00 77 1012.3
20260902064815 23 229 0.0 0.0 0.00 0.33 0.00 77 1012.2
20260902064331 23 229 0.0 0.0 0.00 0.33 0.00 77 1012.2
20260902063817 23 229 0.0 0.0 0.00 0.33 0.00 77 1012.2
20260902063322 23 229 0.0 0.0 0.00 0.33 0.00 77 1012.4
20260902062826 23 229 0.0 0.0 0.00 0.33 0.00 77 1012.4
20260902062337 23 229 0.0 0.0 0.00 0.33 0.00 77 1012.4
20260902061821 23 229 0.0 0.0 0.00 0.33 0.00 78 1012.6
20260902061347 23 229 0.0 0.0 0.00 0.33 0.00 78 1012.6
20260902060835 23 229 0.0 0.0 0.00 0.33 0.00 78 1012.6
20260902060343 23 229 0.0 0.0 0.00 0.33 0.00 78 1012.7
20260902055824 23 229 0.0 0.0 0.00 0.33 0.00 78 1012.7
20260902055315 23 229 0.0 0.0 0.00 0.33 0.00 78 1012.7
20260902054817 23 229 0.0 0.0 0.00 0.33 0.00 78 1012.7
20260902054326 23 229 0.0 0.0 0.00 0.33 0.00 78 1012.7
20260902053830 23 229 0.0 0.0 0.00 0.33 0.00 78 1012.7
20260902053315 23 229 0.0 0.0 0.00 0.33 0.00 79 1012.9
20260902052849 23 229 0.0 0.0 0.00 0.33 0.00 79 1012.9
20260902052314 23 229 0.0 0.0 0.00 0.33 0.00 79 1012.9
20260902051819 23 229 0.0 0.0 0.00 0.33 0.00 80 1012.9
20260902051324 23 229 0.0 0.0 0.00 0.33 0.00 80 1012.9
20260902050830 23 229 0.0 0.0 0.00 0.33 0.00 80 1012.9
20260902050314 23 229 0.0 0.0 0.00 0.33 0.00 80 1012.9
20260902045827 23 229 0.0 0.0 0.00 0.33 0.00 80 1012.9
20260902045342 23 229 0.0 0.0 0.00 0.33 0.00 80 1012.9
20260902044825 23 229 0.0 0.0 0.00 0.33 0.00 81 1012.8
20260902044328 23 229 0.0 0.0 0.00 0.33 0.00 81 1012.8
20260902043827 23 229 0.0 0.0 0.00 0.33 0.00 81 1012.8
20260902043326 23 229 0.0 0.0 0.00 0.33 0.00 81 1012.7
20260902042846 23 229 0.0 0.0 0.00 0.33 0.00 81 1012.7
20260902042331 23 229 0.0 0.0 0.00 0.33 0.00 81 1012.7
20260902041834 24 229 0.0 0.0 0.00 0.33 0.00 81 1012.6
20260902041314 24 229 0.0 0.0 0.00 0.33 0.00 82 1012.6
20260902040817 24 229 0.0 0.0 0.00 0.33 0.00 82 1012.6
20260902040345 24 229 0.0 0.0 0.00 0.33 0.33 82 1012.5
20260902035839 24 229 0.0 0.0 0.00 0.33 0.33 82 1012.5
20260902035321 24 229 0.0 0.0 0.00 0.33 0.33 82 1012.5
20260902034830 24 229 0.0 0.0 0.00 0.33 0.33 82 1012.3
20260902034332 24 229 0.0 0.0 0.00 0.33 0.33 82 1012.3
20260902033823 24 229 0.0 0.0 0.00 0.33 0.33 82 1012.3
20260902033329 24 229 0.0 0.0 0.00 0.33 0.33 82 1012.0
20260902032813 25 229 0.0 0.0 0.00 0.33 0.33 82 1012.0
20260902032319 25 229 0.0 0.0 0.00 0.33 0.33 82 1012.0
20260902031825 25 229 0.0 0.0 0.00 0.33 0.33 82 1011.5
20260902031336 25 229 0.0 0.0 0.00 0.33 0.33 82 1011.5
20260902030821 25 229 0.0 0.0 0.00 0.33 0.33 82 1011.5
20260902030321 25 229 0.0 0.0 0.00 0.33 0.33 82 1011.8